Time,TemperatureF,DewpointF,PressureIn,WindDirection,WindDirectionDegrees,WindSpeedMPH,WindSpeedGustMPH,Humidity,HourlyPrecipIn,Conditions,Clouds,dailyrainin,SoftwareType,DateUTC
2013-01-02 00:03:00,39.0,24.0,-100.00,NNW,342,9.0,-999.0,55,0.00,,,0.00,,2013-01-02 05:03:00,
2013-01-02 00:12:00,39.0,24.0,-100.00,NNW,342,9.0,-999.0,55,0.00,,,0.00,,2013-01-02 05:12:00,
2013-01-02 00:53:00,38.0,24.0,-100.00,NNW,335,7.0,-999.0,56,0.00,,,0.00,,2013-01-02 05:53:00,
2013-01-02 01:02:00,38.0,24.0,-100.00,NNW,335,7.0,-999.0,56,0.00,,,0.00,,2013-01-02 06:02:00,
2013-01-02 01:12:00,38.0,24.0,-100.00,NNW,335,7.0,-999.0,56,0.00,,,0.00,,2013-01-02 06:12:00,
2013-01-02 01:53:00,36.0,23.0,-100.00,NNE,33,8.0,-999.0,58,0.00,,,0.00,,2013-01-02 06:53:00,
2013-01-02 02:02:00,36.0,23.0,-100.00,NNE,33,8.0,-999.0,58,0.00,,,0.00,,2013-01-02 07:02:00,
2013-01-02 02:12:00,36.0,23.0,-100.00,NNE,33,8.0,-999.0,58,0.00,,,0.00,,2013-01-02 07:12:00,
2013-01-02 02:52:00,34.0,20.0,-100.00,NE,37,5.0,-999.0,56,0.00,,,0.00,,2013-01-02 07:52:00,
2013-01-02 03:02:00,34.0,20.0,-100.00,NE,37,5.0,-999.0,56,0.00,,,0.00,,2013-01-02 08:02:00,
2013-01-02 03:12:00,34.0,20.0,-100.00,NE,37,5.0,-999.0,56,0.00,,,0.00,,2013-01-02 08:12:00,
2013-01-02 03:53:00,34.0,20.0,-100.00,NNE,27,5.0,-999.0,57,0.00,,,0.00,,2013-01-02 08:53:00,
2013-01-02 04:02:00,34.0,20.0,-100.00,NNE,27,5.0,-999.0,57,0.00,,,0.00,,2013-01-02 09:02:00,
2013-01-02 04:12:00,34.0,20.0,-100.00,NNE,27,5.0,-999.0,57,0.00,,,0.00,,2013-01-02 09:12:00,
2013-01-02 04:53:00,33.0,18.0,-100.00,NE,34,6.0,-999.0,53,0.00,,,0.00,,2013-01-02 09:53:00,
2013-01-02 05:02:00,33.0,18.0,-100.00,NE,34,6.0,-999.0,53,0.00,,,0.00,,2013-01-02 10:02:00,
2013-01-02 05:12:00,33.0,18.0,-100.00,NE,34,6.0,-999.0,53,0.00,,,0.00,,2013-01-02 10:12:00,
2013-01-02 05:53:00,32.0,16.0,-100.00,NE,45,7.0,-999.0,52,0.00,,,0.00,,2013-01-02 10:53:00,
2013-01-02 06:02:00,32.0,16.0,-100.00,NE,45,7.0,-999.0,52,0.00,,,0.00,,2013-01-02 11:02:00,
2013-01-02 06:12:00,32.0,16.0,-100.00,NE,45,7.0,-999.0,52,0.00,,,0.00,,2013-01-02 11:12:00,
2013-01-02 06:53:00,31.0,16.0,-100.00,NNE,21,6.0,-999.0,53,0.00,,,0.00,,2013-01-02 11:53:00,
2013-01-02 07:03:00,31.0,16.0,-100.00,NNE,21,6.0,-999.0,53,0.00,,,0.00,,2013-01-02 12:03:00,
2013-01-02 07:12:00,31.0,16.0,-100.00,NNE,21,6.0,-999.0,53,0.00,,,0.00,,2013-01-02 12:12:00,
2013-01-02 07:53:00,31.0,15.0,-100.00,NNE,21,7.0,-999.0,52,0.00,,,0.00,,2013-01-02 12:53:00,
2013-01-02 08:03:00,31.0,15.0,-100.00,NNE,21,7.0,-999.0,52,0.00,,,0.00,,2013-01-02 13:03:00,
2013-01-02 08:12:00,31.0,15.0,-100.00,NNE,21,7.0,-999.0,52,0.00,,,0.00,,2013-01-02 13:12:00,
2013-01-02 08:53:00,30.0,14.0,-100.00,North,11,7.0,-999.0,51,0.00,,,0.00,,2013-01-02 13:53:00,
2013-01-02 09:03:00,30.0,14.0,-100.00,North,11,7.0,-999.0,51,0.00,,,0.00,,2013-01-02 14:03:00,
2013-01-02 09:12:00,30.0,14.0,-100.00,North,11,7.0,-999.0,51,0.00,,,0.00,,2013-01-02 14:12:00,
2013-01-02 09:53:00,31.0,15.0,-100.00,NNE,16,6.0,-999.0,50,0.00,,,0.00,,2013-01-02 14:53:00,
2013-01-02 10:03:00,31.0,15.0,-100.00,NNE,16,6.0,-999.0,50,0.00,,,0.00,,2013-01-02 15:03:00,
2013-01-02 10:12:00,31.0,15.0,-100.00,NNE,16,6.0,-999.0,50,0.00,,,0.00,,2013-01-02 15:12:00,
2013-01-02 10:53:00,33.0,15.0,-100.00,NNW,348,7.0,-999.0,48,0.00,,,0.00,,2013-01-02 15:53:00,
2013-01-02 11:03:00,33.0,15.0,-100.00,NNW,348,7.0,-999.0,48,0.00,,,0.00,,2013-01-02 16:03:00,
2013-01-02 11:13:00,33.0,15.0,-100.00,NNW,348,7.0,-999.0,48,0.00,,,0.00,,2013-01-02 16:13:00,
2013-01-02 11:54:00,33.0,15.0,-100.00,NW,315,14.0,-999.0,47,0.00,,,0.00,,2013-01-02 16:54:00,
2013-01-02 12:04:00,33.0,15.0,-100.00,NW,315,14.0,-999.0,47,0.00,,,0.00,,2013-01-02 17:04:00,
2013-01-02 12:13:00,33.0,15.0,-100.00,NW,315,14.0,-999.0,47,0.00,,,0.00,,2013-01-02 17:13:00,
2013-01-02 12:54:00,33.0,16.0,-100.00,NW,305,13.0,-999.0,50,0.00,,,0.00,,2013-01-02 17:54:00,
2013-01-02 13:03:00,33.0,16.0,-100.00,NW,305,13.0,-999.0,50,0.00,,,0.00,,2013-01-02 18:03:00,
2013-01-02 13:13:00,33.0,16.0,-100.00,NW,305,13.0,-999.0,50,0.00,,,0.00,,2013-01-02 18:13:00,
2013-01-02 13:53:00,32.0,17.0,-100.00,NW,305,17.0,-999.0,53,0.00,,,0.00,,2013-01-02 18:53:00,
2013-01-02 14:03:00,32.0,17.0,-100.00,NW,305,17.0,-999.0,53,0.00,,,0.00,,2013-01-02 19:03:00,
2013-01-02 14:13:00,32.0,17.0,-100.00,NW,305,17.0,-999.0,53,0.00,,,0.00,,2013-01-02 19:13:00,
2013-01-02 14:53:00,34.0,18.0,-100.00,WNW,301,15.0,-999.0,52,0.00,,,0.00,,2013-01-02 19:53:00,
2013-01-02 15:03:00,34.0,18.0,-100.00,WNW,301,15.0,-999.0,52,0.00,,,0.00,,2013-01-02 20:03:00,
2013-01-02 15:12:00,34.0,18.0,-100.00,WNW,301,15.0,-999.0,52,0.00,,,0.00,,2013-01-02 20:12:00,
2013-01-02 15:53:00,33.0,15.0,-100.00,WNW,301,18.0,-999.0,47,0.00,,,0.00,,2013-01-02 20:53:00,
2013-01-02 16:03:00,33.0,15.0,-100.00,WNW,301,18.0,-999.0,47,0.00,,,0.00,,2013-01-02 21:03:00,
2013-01-02 16:13:00,33.0,15.0,-100.00,WNW,301,18.0,-999.0,47,0.00,,,0.00,,2013-01-02 21:13:00,
2013-01-02 16:53:00,32.0,15.0,-100.00,NW,313,12.0,-999.0,48,0.00,,,0.00,,2013-01-02 21:53:00,
2013-01-02 17:03:00,32.0,15.0,-100.00,NW,313,12.0,-999.0,48,0.00,,,0.00,,2013-01-02 22:03:00,
2013-01-02 17:13:00,32.0,15.0,-100.00,NW,313,12.0,-999.0,48,0.00,,,0.00,,2013-01-02 22:13:00,
2013-01-02 17:53:00,32.0,16.0,-100.00,NW,315,9.0,-999.0,51,0.00,,,0.00,,2013-01-02 22:53:00,
2013-01-02 18:03:00,32.0,16.0,-100.00,NW,315,9.0,-999.0,51,0.00,,,0.00,,2013-01-02 23:03:00,
2013-01-02 18:13:00,32.0,16.0,-100.00,NW,315,9.0,-999.0,51,0.00,,,0.00,,2013-01-02 23:13:00,
2013-01-02 18:53:00,32.0,17.0,-100.00,NW,320,10.0,-999.0,54,0.00,,,0.00,,2013-01-02 23:53:00,
2013-01-02 19:02:00,32.0,17.0,-100.00,NW,320,10.0,-999.0,54,0.00,,,0.00,,2013-01-03 00:02:00,
2013-01-02 19:12:00,32.0,17.0,-100.00,NW,320,10.0,-999.0,54,0.00,,,0.00,,2013-01-03 00:12:00,
2013-01-02 19:53:00,31.0,17.0,-100.00,NW,323,8.0,-999.0,56,0.00,,,0.00,,2013-01-03 00:53:00,
2013-01-02 20:02:00,31.0,17.0,-100.00,NW,323,8.0,-999.0,56,0.00,,,0.00,,2013-01-03 01:02:00,
2013-01-02 20:12:00,31.0,17.0,-100.00,NW,323,8.0,-999.0,56,0.00,,,0.00,,2013-01-03 01:12:00,
2013-01-02 20:53:00,31.0,18.0,-100.00,NNW,327,5.0,-999.0,57,0.00,,,0.00,,2013-01-03 01:53:00,
2013-01-02 21:02:00,31.0,18.0,-100.00,NNW,327,5.0,-999.0,57,0.00,,,0.00,,2013-01-03 02:02:00,
2013-01-02 21:12:00,31.0,18.0,-100.00,NNW,327,5.0,-999.0,57,0.00,,,0.00,,2013-01-03 02:12:00,
2013-01-02 22:02:00,30.0,17.0,-100.00,NNW,330,6.0,-999.0,59,0.00,,,0.00,,2013-01-03 03:02:00,
2013-01-02 22:12:00,30.0,17.0,-100.00,NNW,330,6.0,-999.0,59,0.00,,,0.00,,2013-01-03 03:12:00,
2013-01-02 22:53:00,31.0,18.0,-100.00,NNW,330,8.0,-999.0,58,0.00,,,0.00,,2013-01-03 03:53:00,
2013-01-02 23:03:00,31.0,18.0,-100.00,NNW,330,8.0,-999.0,58,0.00,,,0.00,,2013-01-03 04:03:00,
2013-01-02 23:12:00,31.0,18.0,-100.00,NNW,330,8.0,-999.0,58,0.00,,,0.00,,2013-01-03 04:12:00,
2013-01-02 23:53:00,32.0,18.0,-100.00,NNW,337,10.0,-999.0,56,0.00,,,0.00,,2013-01-03 04:53:00,